This is the latest recevied weather packets stored in our database for station/object EA7JCM-13. If no packets are shown the sender has not sent any weather packets the latest 10 day(s).
| Time | Temp. | Humidity | Pressure | Rain* | Wind** | Luminosity | Snow |
|---|---|---|---|---|---|---|---|
| 1777986303 | 18.33° C | 39% | 1010.1 hPa | 0 mm | - | - | - |
| 1777986003 | 18.33° C | 41% | 1010.2 hPa | 0 mm | - | - | - |
| 1777985703 | 18.33° C | 41% | 1010.1 hPa | 0 mm | - | - | - |
| 1777985402 | 18.33° C | 40% | 1010.4 hPa | 0 mm | - | - | - |
| 1777985103 | 18.33° C | 41% | 1010.3 hPa | 0 mm | - | - | - |
| 1777984803 | 17.78° C | 43% | 1010.2 hPa | 0 mm | - | - | - |
| 1777984503 | 17.78° C | 42% | 1010.4 hPa | 0 mm | - | - | - |
| 1777984203 | 18.33° C | 42% | 1010.2 hPa | 0 mm | - | - | - |
| 1777983903 | 18.33° C | 40% | 1010.2 hPa | 0 mm | - | - | - |
| 1777983603 | 18.89° C | 40% | 1010.6 hPa | 0 mm | - | - | - |
| 1777983303 | 17.78° C | 41% | 1010.5 hPa | 0 mm | - | - | - |
| 1777983003 | 17.78° C | 43% | 1010.4 hPa | 0 mm | - | - | - |
| 1777982703 | 17.78° C | 41% | 1010.5 hPa | 0 mm | - | - | - |
| 1777982403 | 17.78° C | 43% | 1010.6 hPa | 0 mm | - | - | - |
| 1777982103 | 17.22° C | 44% | 1010.7 hPa | 0 mm | - | - | - |
| 1777981803 | 17.78° C | 46% | 1010.6 hPa | 0 mm | - | - | - |
| 1777981503 | 17.22° C | 44% | 1010.6 hPa | 0 mm | - | - | - |
| 1777981203 | 17.78° C | 43% | 1010.8 hPa | 0 mm | - | - | - |
| 1777980903 | 16.67° C | 45% | 1010.9 hPa | 0 mm | - | - | - |
| 1777980603 | 16.67° C | 44% | 1010.8 hPa | 0 mm | - | - | - |
| 1777980304 | 17.22° C | 44% | 1010.9 hPa | 0 mm | - | - | - |
| 1777980003 | 17.78° C | 45% | 1010.9 hPa | 0 mm | - | - | - |
| 1777979703 | 17.22° C | 46% | 1011.1 hPa | 0 mm | - | - | - |
| 1777979403 | 17.22° C | 45% | 1011 hPa | 0 mm | - | - | - |
| 1777979104 | 17.22° C | 45% | 1011.1 hPa | 0 mm | - | - | - |
* Rain latest hour (hover to see other rain measurements)
** Current wind speed in m/s (hover to see current wind gust speed)